Flag for U.S.A. Weather past 2 weeks in Harrisburg, Pennsylvania, U.S.A.

Now
47 °F

Scattered clouds.


Feels Like: 42 °F
Forecast: 34 / 52 °F
Wind: 10 mph from Northeast

Location: Capital City Airport

Current Time: Mar 31, 2015 at 6:07:44 PM

Latest Report: Mar 31, 2015 at 4:56 PM


Visibility: 10 mi

Pressure: 29.67 "Hg

Humidity: 61%

Dew point: 34 °F

Location of HarrisburgLocation

Historic Weather in Harrisburg — Graph

°F

Harrisburg temperature yesterday

Maximum temperature yesterday: 54 °F (at 3:56 PM)
Minimum temperature yesterday: 36 °F (at 2:56 AM)
Average temperature yesterday: 45 °F

Past Weeks' High & Low Weather Summary

 TemperatureHumidityPressure
High71 °F (Mar 26, 4:56 PM)100% (Mar 21, 6:56 AM)30.40 "Hg (Mar 21, 6:56 AM)
Low22 °F (Mar 29, 3:56 AM)17% (Mar 22, 5:56 PM)29.57 "Hg (Mar 26, 4:56 PM)
Average39 °F53%30.07 "Hg
* Reported Mar 16 4:56 PM — Mar 31 4:56 PM, Harrisburg, Weather by CustomWeather, © 2015

Note: Actual official high and low records may vary slightly from our data, if they occured in-between our weather recording intervals... More about our weather records

Advertising

Harrisburg weather history for previous 24 hours

 ConditionsComfort  
Time TempWeatherWind HumidityBarometerVisibility
4:56 PM
Tue, Mar 31
47 °FPassing clouds.10 mph61%29.67 "Hg10 mi
3:56 PM45 °FCloudy.6 mph65%29.68 "Hg10 mi
2:56 PM44 °FLight rain. Overcast.5 mph71%29.69 "Hg6 mi
1:56 PM50 °FLight rain. More clouds than sun.7 mph48%29.70 "Hg10 mi
12:56 PM50 °FScattered clouds.10 mph44%29.69 "Hg10 mi
11:56 AM49 °FBroken clouds.10 mph46%29.76 "Hg10 mi
10:56 AM47 °FBroken clouds.9 mph46%29.83 "Hg10 mi
9:56 AM46 °FMostly cloudy.5 mph51%29.87 "Hg10 mi
8:56 AM42 °FMore clouds than sun.3 mph62%29.90 "Hg10 mi
7:56 AM40 °FOvercast.5 mph63%29.91 "Hg10 mi
6:56 AM40 °FPassing clouds.6 mph60%29.91 "Hg10 mi
5:56 AM36 °FClear.5 mph67%29.90 "Hg10 mi
4:56 AM42 °FClear.8 mph55%29.89 "Hg10 mi
3:56 AM39 °FClear.5 mph62%29.90 "Hg10 mi
2:56 AM41 °FClear.5 mph49%29.90 "Hg10 mi
1:56 AM43 °FClear.10 mph47%29.89 "Hg10 mi
12:56 AM43 °FPassing clouds.8 mph45%29.88 "Hg10 mi
11:56 PM
Mon, Mar 30
44 °FPassing clouds.5 mph41%29.90 "Hg10 mi
10:56 PM45 °FPartly cloudy.7 mph40%29.91 "Hg10 mi
9:56 PM45 °FClear.6 mph37%29.92 "Hg10 mi
8:56 PM47 °FClear.6 mph34%29.91 "Hg10 mi
7:56 PM49 °FSunny.7 mph32%29.89 "Hg10 mi
6:56 PM52 °FScattered clouds.13 mph30%29.87 "Hg10 mi
Weather by CustomWeather, © 2015

See weather overviewHow to use our weather pages